Temp
60 61 61 61 62 63 63 63 63 63 64 64 66 66 67 66 66 66 67 71 73 74 75 76 77 76 76 76 75 74 73 73 74 74 73 73 73 73 73 73 72 72 72
61 60 61 61 62 62 61 62 63 62 63 63 64 65 65 65 66 66 67 68 72 72 75 76 77 76 76 76 74 73 73 73 74 73 73 73 73 73 73 73 72 72 71
61 61 61 61 61 61 61 61 61 62 61 62 63 64 64 65 65 66 67 68 69 71 73 74 75 75 74 74 74 74 73 73 74 73 72 72 72 72 72 72 72 72 71
62 61 61 60 61 60 60 60 60 60 61 61 61 62 63 64 65 66 67 68 69 70 71 74 73 74 73 71 73 73 73 72 72 71 71 72 72 72 72 72 72 71 71
63 61 60 60 61 60 59 59 59 60 59 60 61 61 62 63 64 66 67 68 69 69 70 72 71 73 73 72 73 73 72 71 71 71 72 72 72 72 72 71 71 71 70
63 61 60 60 60 59 58 58 59 59 60 60 61 62 61 62 63 65 66 67 68 68 69 70 70 72 72 72 73 73 73 73 72 71 71 71 71 71 71 71 71 70 70
63 61 60 60 59 59 59 58 59 59 59 60 58 59 60 63 63 63 65 66 67 66 68 69 69 70 70 71 70 71 72 72 72 71 71 70 71 71 71 71 71 71 70
62 61 60 60 59 58 58 58 58 57 58 59 58 58 57 60 62 64 64 65 67 68 68 69 68 69 69 68 68 70 71 71 72 72 70 69 71 71 71 71 71 71 70
63 62 61 60 59 58 57 57 58 59 57 58 60 59 55 55 59 62 63 64 66 66 66 68 67 68 68 66 68 69 69 70 73 72 69 69 71 71 71 71 70 70 70
63 62 61 60 59 58 57 58 59 60 60 58 59 61 60 61 57 56 62 63 65 65 66 66 65 67 67 67 68 68 68 69 70 70 71 70 71 72 71 71 70 70 70
63 62 61 60 59 58 59 59 59 59 60 59 60 60 61 61 61 60 56 60 62 64 65 66 66 65 66 66 66 67 66 68 68 70 70 71 72 72 71 71 70 70 70
60 61 61 60 60 59 59 59 60 60 60 61 61 61 61 60 59 59 59 59 60 62 64 65 65 65 65 65 67 66 66 65 65 66 68 67 70 71 71 71 71 70 70
58 59 60 60 60 61 61 60 60 61 60 61 61 61 61 61 62 62 62 59 59 61 62 64 65 65 65 66 66 67 66 63 63 63 64 65 67 67 69 70 70 71 71
57 59 60 61 62 62 62 61 61 61 61 62 62 62 61 61 63 63 61 61 57 59 61 61 64 64 65 65 66 66 64 63 62 61 61 62 64 65 66 67 68 68 68
59 60 61 61 61 62 62 62 61 62 62 62 61 62 63 62 63 64 63 64 60 57 57 61 61 64 64 65 65 64 64 62 62 60 60 61 62 63 63 64 64 64 64
60 60 61 61 61 62 62 61 62 64 64 61 62 63 62 63 63 63 63 63 61 61 57 61 62 63 64 64 65 63 63 63 61 60 61 60 60 60 61 61 61 62 62
59 61 61 61 61 61 61 62 63 63 62 62 62 63 62 63 62 62 62 63 61 62 59 61 63 63 63 63 62 62 63 63 63 60 61 59 58 58 59 59 59 59 60
60 61 61 61 61 61 61 61 63 63 63 62 62 63 61 62 62 62 63 62 62 62 61 59 61 61 62 62 61 61 63 66 65 60 59 58 57 56 56 56 56 56 55
60 61 62 61 61 61 61 61 62 62 62 62 63 62 62 63 62 62 62 61 62 62 62 61 59 60 61 61 59 60 60 61 63 63 59 57 56 55 55 55 54 54 53
61 61 62 62 62 62 61 61 61 62 63 62 62 62 63 63 62 61 61 61 61 61 61 60 59 58 59 59 61 61 60 61 63 64 61 59 57 56 55 55 56 57 54
61 62 62 62 62 62 62 61 62 63 63 62 62 63 63 62 60 61 62 61 62 61 60 59 58 57 57 59 60 60 61 59 60 61 62 60 61 61 60 57 59 56 52
61 62 62 62 61 62 50 54 59 62 63 62 61 61 61 59 57 55 56 56 60 61 59 61 59 59 59 61 59 60 59 60 61 60 62 59 63 60 61 63 52 51 51
60 61 61 62 61 59 47 50 53 63 62 61 61 62 62 61 61 61 54 54 55 56 57 61 60 61 60 61 60 58 59 60 61 60 63 58 61 58 60 59 50 49 49
59 59 59 61 60 57 47 48 53 62 62 62 62 63 63 63 60 62 63 62 63 63 62 64 63 63 64 62 63 62 61 59 59 57 60 58 57 60 59 60 50 50 48
57 58 59 60 60 57 46 46 57 63 62 62 63 61 63 63 48 51 64 62 60 59 52 52 51 49 49 49 56 60 59 60 58 59 59 59 57 58 59 58 58 50 48
58 59 59 60 56 59 45 47 57 63 60 60 60 60 53 58 46 49 60 61 59 59 58 56 57 54 53 52 50 63 62 61 58 59 59 59 56 57 56 57 56 55 55
MSLP
1012.03 1011.99 1012.06 1012.04 1012.06 1012.07 1012.04 1012.11 1012.15 1012.19 1012.28 1012.38 1012.46 1012.77 1013.00 1013.26 1013.43 1013.45 1013.44 1013.44 1013.33 1013.18 1013.04 1013.07 1013.09 1013.58 1014.04 1014.53 1015.04 1015.77 1016.64 1017.32 1018.20 1018.41 1019.09 1019.75 1020.36 1020.70 1021.18 1021.69 1021.84 1022.29 1022.90
1011.45 1011.56 1011.60 1011.69 1011.73 1011.71 1011.88 1011.91 1012.03 1012.15 1012.29 1012.38 1012.58 1012.72 1012.95 1013.13 1013.17 1013.17 1013.24 1013.21 1013.05 1012.98 1012.86 1012.91 1012.88 1013.30 1013.60 1014.13 1014.85 1015.81 1016.71 1017.40 1018.10 1018.70 1019.14 1019.67 1020.34 1020.78 1021.37 1021.61 1021.91 1022.45 1022.98
1010.85 1011.06 1011.16 1011.24 1011.33 1011.43 1011.61 1011.75 1011.97 1012.01 1012.23 1012.38 1012.51 1012.67 1012.84 1012.85 1012.90 1012.88 1012.92 1012.86 1012.77 1012.74 1012.60 1012.76 1012.77 1012.90 1013.48 1013.69 1014.54 1015.36 1016.70 1017.44 1017.97 1018.86 1019.36 1020.18 1020.62 1021.04 1021.41 1021.86 1022.14 1022.83 1023.37
1010.32 1010.67 1010.80 1010.76 1010.92 1011.21 1011.34 1011.64 1011.74 1011.97 1012.17 1012.32 1012.42 1012.52 1012.64 1012.68 1012.62 1012.57 1012.53 1012.49 1012.57 1012.60 1012.47 1012.47 1012.59 1012.56 1012.20 1012.95 1013.07 1014.78 1016.43 1017.38 1018.14 1019.05 1019.72 1020.40 1020.97 1021.23 1021.42 1022.11 1022.41 1023.29 1023.53
1009.95 1010.29 1010.44 1010.63 1010.79 1010.99 1011.19 1011.32 1011.60 1011.88 1012.08 1012.24 1012.31 1012.51 1012.50 1012.54 1012.45 1012.33 1012.29 1012.28 1012.44 1012.51 1012.49 1012.36 1012.71 1012.91 1012.79 1013.33 1013.82 1015.54 1016.14 1017.52 1018.35 1019.15 1019.98 1020.53 1021.08 1021.47 1021.80 1021.87 1022.89 1023.77 1023.64
1009.56 1009.84 1010.16 1010.36 1010.60 1010.91 1011.11 1011.38 1011.65 1011.80 1011.96 1012.04 1012.23 1012.32 1012.50 1012.48 1012.42 1012.41 1012.27 1012.16 1012.47 1012.70 1012.49 1012.21 1012.59 1013.04 1013.43 1014.02 1014.60 1015.86 1016.68 1017.32 1018.42 1019.26 1019.74 1020.35 1021.11 1021.59 1021.60 1022.38 1023.34 1023.73 1023.73
1009.29 1009.66 1009.95 1010.21 1010.48 1010.76 1010.92 1011.25 1011.50 1011.67 1011.95 1012.10 1012.31 1012.50 1012.51 1012.40 1012.37 1012.45 1012.45 1012.41 1012.74 1012.88 1012.67 1012.55 1012.54 1013.00 1013.66 1014.22 1015.04 1015.67 1016.64 1017.57 1018.74 1019.43 1020.09 1020.71 1021.26 1021.35 1022.04 1022.90 1023.49 1023.69 1023.91
1009.03 1009.37 1009.66 1010.03 1010.27 1010.66 1010.87 1011.11 1011.34 1011.54 1011.81 1012.01 1012.16 1012.31 1012.54 1012.62 1012.52 1012.54 1012.55 1012.65 1012.76 1012.77 1012.90 1012.93 1013.08 1013.23 1014.26 1015.15 1015.97 1016.18 1017.02 1017.93 1018.88 1019.64 1020.44 1020.99 1021.66 1022.22 1022.75 1023.12 1023.66 1023.94 1024.24
1008.79 1009.12 1009.53 1009.87 1010.14 1010.45 1010.71 1010.92 1011.08 1011.21 1011.60 1012.01 1011.94 1012.02 1012.46 1012.52 1012.71 1012.76 1012.71 1012.80 1012.84 1012.90 1013.23 1013.13 1013.59 1014.07 1014.69 1015.43 1016.42 1016.68 1017.49 1018.12 1018.98 1019.82 1020.77 1021.19 1022.27 1022.68 1023.25 1023.52 1024.00 1024.01 1024.33
1008.78 1009.02 1009.47 1009.78 1010.05 1010.35 1010.55 1010.68 1010.87 1011.09 1011.20 1011.54 1011.89 1011.82 1011.84 1011.99 1012.32 1012.89 1012.93 1013.05 1013.11 1013.19 1013.28 1013.62 1013.95 1014.40 1015.14 1015.69 1016.49 1016.24 1017.91 1018.65 1019.56 1020.58 1020.90 1021.76 1022.41 1022.95 1023.49 1024.07 1024.35 1024.38 1024.61
1009.00 1009.29 1009.51 1009.74 1009.98 1010.16 1010.34 1010.45 1010.79 1010.99 1011.18 1011.27 1011.36 1011.57 1011.82 1011.79 1011.69 1012.08 1013.00 1013.22 1013.34 1013.46 1013.59 1013.90 1014.22 1014.74 1014.45 1015.41 1016.57 1017.50 1018.27 1019.12 1020.11 1020.64 1021.35 1022.07 1022.41 1022.88 1023.42 1023.92 1024.20 1024.60 1024.91
1009.20 1009.43 1009.57 1009.73 1009.89 1010.06 1010.16 1010.32 1010.49 1010.86 1011.17 1011.19 1011.21 1011.23 1011.61 1011.80 1012.00 1012.02 1012.71 1013.22 1013.51 1013.77 1013.88 1014.10 1014.49 1014.82 1015.38 1016.21 1016.99 1018.04 1019.05 1019.82 1020.36 1020.99 1021.62 1022.28 1022.48 1023.06 1023.63 1023.99 1024.22 1024.51 1024.71
1009.46 1009.63 1009.68 1009.77 1009.92 1009.92 1010.07 1010.18 1010.36 1010.72 1010.97 1011.08 1011.08 1011.18 1011.35 1011.56 1011.83 1011.84 1012.43 1013.04 1013.65 1014.09 1014.45 1014.51 1014.85 1015.20 1016.00 1016.90 1017.75 1018.44 1019.26 1020.16 1020.74 1021.30 1021.86 1022.23 1022.63 1023.23 1023.62 1024.12 1024.28 1024.61 1024.79
1009.62 1009.72 1009.74 1009.83 1009.86 1009.86 1010.03 1010.15 1010.29 1010.53 1010.69 1010.92 1011.10 1011.04 1011.25 1011.67 1011.59 1011.64 1012.25 1012.77 1013.13 1014.15 1014.18 1014.36 1014.62 1015.61 1016.53 1017.46 1018.34 1019.10 1019.86 1020.41 1021.12 1021.68 1022.22 1022.47 1022.76 1023.35 1023.72 1024.08 1024.29 1024.64 1024.77
1009.71 1009.81 1009.86 1009.89 1009.95 1010.03 1010.09 1010.27 1010.35 1010.38 1010.65 1010.85 1010.99 1011.10 1011.16 1011.52 1011.76 1011.63 1011.96 1012.50 1013.26 1014.13 1014.80 1015.34 1015.56 1016.33 1017.28 1017.97 1018.89 1019.56 1020.23 1020.88 1021.51 1022.00 1022.30 1022.58 1022.94 1023.41 1023.53 1023.87 1024.31 1024.62 1024.66
1009.77 1009.89 1009.94 1010.04 1010.08 1010.18 1010.28 1010.46 1010.62 1010.59 1010.64 1010.95 1011.02 1011.02 1011.35 1011.47 1011.92 1012.25 1012.39 1012.82 1013.34 1014.12 1014.96 1015.61 1016.08 1016.89 1017.79 1018.23 1019.44 1020.13 1020.81 1021.27 1021.65 1022.09 1022.39 1022.62 1023.00 1023.38 1023.56 1023.81 1024.17 1024.36 1024.66
1009.79 1009.91 1009.98 1010.11 1010.22 1010.46 1010.60 1010.64 1010.74 1010.74 1010.81 1010.98 1011.17 1011.17 1011.42 1011.52 1012.02 1012.52 1013.00 1013.29 1013.80 1014.24 1015.19 1016.11 1016.69 1017.53 1018.32 1019.13 1020.01 1020.73 1021.07 1021.34 1021.68 1022.01 1022.44 1022.74 1023.16 1023.36 1023.34 1023.60 1024.25 1024.43 1024.89
1009.87 1009.98 1010.06 1010.16 1010.40 1010.57 1010.72 1010.88 1010.83 1010.88 1010.96 1011.13 1011.32 1011.48 1011.79 1012.10 1012.36 1012.82 1013.24 1013.84 1014.41 1014.76 1015.40 1016.34 1017.40 1018.12 1018.78 1019.70 1020.52 1021.12 1021.40 1021.74 1021.93 1022.13 1022.51 1022.95 1023.13 1023.26 1023.64 1023.93 1024.32 1024.54 1024.64
1009.93 1010.06 1010.14 1010.34 1010.64 1010.84 1011.02 1011.17 1011.21 1011.30 1011.40 1011.54 1011.72 1011.98 1012.21 1012.42 1012.90 1013.43 1013.93 1014.39 1014.78 1015.42 1016.00 1016.66 1017.32 1018.01 1019.08 1020.08 1020.94 1021.37 1021.59 1021.84 1021.80 1022.12 1022.59 1022.80 1023.05 1023.31 1023.69 1023.92 1024.34 1024.41 1024.25
1009.92 1010.12 1010.29 1010.49 1010.80 1011.09 1011.35 1011.49 1011.52 1011.70 1011.81 1011.94 1012.19 1012.39 1012.59 1012.96 1013.36 1013.70 1014.13 1014.55 1015.17 1015.82 1016.60 1017.38 1018.03 1018.60 1019.70 1020.57 1020.98 1021.21 1021.77 1021.93 1022.13 1022.34 1022.52 1022.96 1023.08 1023.57 1023.71 1023.74 1023.66 1023.88 1024.34
1010.03 1010.22 1010.45 1010.77 1011.01 1011.29 1011.53 1011.81 1012.06 1012.06 1012.11 1012.33 1012.65 1012.80 1013.09 1013.54 1013.88 1014.20 1014.57 1015.20 1015.62 1016.31 1016.99 1017.56 1018.43 1019.24 1020.06 1020.75 1021.04 1021.37 1021.66 1022.12 1022.35 1022.26 1022.70 1023.16 1023.16 1023.28 1023.56 1023.73 1023.99 1024.36 1024.46
1010.08 1010.32 1010.53 1010.83 1011.29 1011.59 1011.88 1012.17 1012.36 1012.49 1012.59 1012.74 1013.00 1013.47 1013.66 1013.92 1014.32 1014.68 1015.13 1015.59 1015.80 1016.45 1017.14 1017.58 1018.38 1019.00 1019.72 1020.28 1020.72 1020.94 1021.57 1022.12 1022.38 1022.48 1022.53 1023.58 1023.46 1023.66 1023.93 1024.40 1024.76 1024.77 1024.73
1010.25 1010.49 1010.81 1011.03 1011.35 1011.83 1012.14 1012.38 1012.62 1012.76 1012.86 1013.05 1013.35 1013.77 1014.25 1014.67 1014.96 1015.34 1015.73 1016.10 1016.48 1016.95 1017.21 1017.48 1018.03 1018.57 1019.21 1019.55 1020.11 1020.91 1021.42 1021.65 1022.10 1022.57 1022.49 1023.79 1024.15 1024.38 1024.85 1024.81 1025.03 1025.07 1024.96
1010.60 1010.81 1011.07 1011.26 1011.62 1012.14 1012.28 1012.52 1012.83 1013.14 1013.26 1013.44 1013.74 1014.10 1014.49 1015.02 1015.50 1015.82 1016.20 1016.71 1017.02 1017.29 1017.53 1017.72 1018.06 1018.42 1018.62 1019.20 1019.54 1020.20 1020.71 1021.48 1021.95 1022.51 1022.74 1023.78 1024.41 1024.60 1025.04 1025.24 1025.43 1025.08 1025.00
1010.87 1011.10 1011.22 1011.49 1011.76 1012.42 1012.68 1012.94 1013.13 1013.37 1013.54 1013.85 1014.16 1014.51 1014.81 1015.41 1015.80 1016.04 1016.47 1016.99 1017.40 1017.81 1018.13 1018.10 1018.28 1018.54 1018.88 1019.24 1019.54 1020.04 1020.82 1021.20 1022.14 1022.53 1022.74 1023.33 1024.22 1024.53 1024.88 1025.16 1025.15 1024.84 1025.23
1010.88 1011.27 1011.59 1011.71 1012.05 1012.42 1012.82 1013.17 1013.24 1013.46 1013.76 1014.19 1014.60 1015.05 1015.36 1015.77 1016.06 1016.35 1016.78 1017.23 1017.57 1017.80 1018.08 1018.56 1018.94 1019.05 1019.06 1019.47 1019.66 1019.62 1020.34 1020.85 1021.70 1022.36 1022.79 1023.62 1024.29 1024.44 1024.85 1025.15 1025.20 1025.62 1025.98
Wind_Speed
5 4 5 3 3 3 3 2 2 2 3 4 4 5 5 5 5 3 3 13 14 15 14 13 15 20 22 24 24 24 21 19 18 20 21 18 18 17 18 17 17 16 15
5 4 4 4 4 3 2 2 2 2 3 3 4 5 5 4 5 5 4 5 13 13 12 13 15 20 24 26 26 25 23 21 20 20 19 21 18 18 18 19 18 17 17
7 5 4 4 3 3 4 2 2 2 2 3 5 5 4 5 5 5 4 5 5 10 10 11 14 18 21 23 28 28 25 23 21 19 17 18 18 18 19 18 18 17 16
7 5 4 4 3 3 2 3 2 2 2 3 3 3 3 3 5 5 5 4 4 3 4 9 7 10 13 22 26 32 26 21 21 22 20 19 17 17 18 18 17 16 16
5 5 3 3 3 2 3 2 1 2 2 3 3 3 3 4 5 3 5 5 3 2 2 4 6 8 15 23 33 31 31 26 23 22 22 20 19 18 17 18 17 15 16
5 4 3 3 3 2 2 2 2 3 2 2 2 3 1 2 2 3 4 3 1 0 3 4 3 5 16 24 29 31 29 27 22 24 22 21 19 18 18 18 17 15 15
4 4 3 3 3 3 3 4 3 4 3 2 2 1 1 2 1 2 1 2 1 1 1 2 3 5 9 23 26 29 28 25 24 23 19 16 17 18 18 19 17 15 14
4 4 4 3 4 2 3 4 4 2 2 2 2 2 2 2 2 1 1 1 1 2 2 6 7 10 9 10 16 25 24 26 25 22 18 14 13 16 18 17 15 14 13
3 4 4 3 3 3 3 3 4 4 3 2 2 3 2 2 1 2 2 2 3 3 2 8 8 8 11 11 16 17 24 26 25 21 18 16 14 16 16 14 14 13 12
3 3 4 4 3 3 3 4 3 2 3 3 1 2 1 2 3 2 2 1 4 4 7 6 8 8 9 10 15 26 25 24 24 21 20 19 17 16 13 11 11 10 10
3 3 3 4 4 3 3 4 4 3 1 3 3 2 1 1 2 3 2 2 2 2 4 7 8 8 7 13 12 16 20 19 18 18 20 18 17 15 14 13 11 10 8
2 3 4 3 3 3 3 3 4 4 3 2 2 2 2 2 2 2 3 3 4 2 4 6 9 7 11 10 16 18 20 12 14 14 15 14 12 13 13 12 11 9 9
2 2 3 3 2 3 4 4 4 3 3 2 3 2 2 1 2 2 5 3 3 3 2 5 9 9 10 9 10 17 18 12 12 12 10 12 11 10 11 10 9 9 6
3 2 3 3 3 4 3 3 2 3 3 3 4 3 2 3 2 5 5 5 3 3 4 3 7 11 10 9 11 15 10 13 12 12 9 8 11 11 8 9 8 6 5
2 2 2 4 4 4 3 3 2 3 3 3 4 4 2 3 2 4 5 6 5 4 2 5 3 11 9 8 10 7 7 10 10 9 9 8 9 9 10 8 7 7 6
2 3 3 4 4 4 4 5 4 3 4 3 3 6 5 4 5 5 5 5 5 6 4 2 6 11 9 8 11 8 7 8 9 7 7 8 8 8 7 7 8 6 5
3 3 3 4 4 5 4 5 3 3 5 5 5 6 7 7 6 7 5 6 7 8 9 6 7 10 11 11 8 6 5 3 4 7 6 6 7 8 8 6 6 4 5
2 3 4 5 5 4 4 5 4 5 6 5 6 7 8 7 8 7 7 8 8 7 9 13 5 4 11 10 6 6 4 3 4 6 7 7 7 7 6 4 2 3 4
4 3 4 5 5 5 5 4 5 6 6 5 6 7 8 10 9 8 8 8 8 8 8 7 5 3 6 5 4 3 3 3 2 5 7 6 4 2 1 2 2 1 4
4 4 4 6 5 5 5 5 5 6 6 6 7 6 7 10 11 9 8 9 9 9 9 9 7 6 4 3 2 3 3 1 2 1 2 3 5 4 5 4 3 5 5
4 4 6 6 5 5 4 6 7 8 6 7 7 6 7 10 10 10 8 8 10 8 7 7 5 3 3 3 4 3 3 2 1 1 2 4 4 5 6 8 9 8 8
5 4 5 6 6 4 9 9 8 7 6 7 8 8 7 10 9 12 12 9 8 8 8 6 3 5 5 4 3 4 4 3 2 1 4 7 5 7 6 6 7 8 7
4 5 4 4 5 5 8 10 9 5 5 6 8 8 8 6 9 10 11 12 10 10 4 4 7 4 4 6 6 4 3 3 2 2 4 6 3 7 5 6 6 6 7
4 4 4 4 5 4 10 9 10 7 6 7 7 7 9 9 7 9 9 6 4 3 1 1 3 4 3 7 6 4 4 6 4 4 1 4 2 3 3 5 6 8 11
3 2 3 5 6 5 7 10 8 7 8 9 7 6 8 8 8 10 7 6 3 2 5 4 4 3 5 10 8 6 4 4 3 1 2 3 3 4 3 4 6 16 18
4 4 4 3 6 6 6 9 7 5 7 5 4 5 9 8 8 7 5 4 4 4 5 6 5 6 6 5 7 3 6 6 4 2 2 2 2 3 4 2 7 8 6
Wind_Direction
220 220 225 222 230 226 228 233 242 243 219 210 187 199 216 236 250 255 258 270 269 272 257 256 224 215 200 182 158 148 150 154 162 150 150 143 135 134 136 138 127 127 126
218 217 224 222 224 207 220 226 233 212 218 190 198 210 224 235 248 252 257 259 261 272 254 257 240 220 202 178 159 158 164 158 156 151 146 142 137 142 144 135 134 132 135
219 221 220 214 216 204 217 213 214 182 188 195 218 218 228 246 252 250 252 250 256 267 253 251 249 221 201 175 166 160 151 152 145 148 146 139 142 145 141 139 133 135 134
212 211 214 226 197 204 202 209 184 194 216 203 211 228 233 249 260 254 255 244 244 255 271 267 249 234 177 193 169 145 145 150 153 157 151 143 144 140 136 141 131 143 141
200 201 203 220 200 197 204 193 190 182 194 204 224 235 244 249 259 266 239 232 225 223 267 218 265 190 157 137 149 152 148 155 158 156 145 144 144 141 142 127 142 155 138
203 193 198 201 190 194 190 167 177 194 187 192 214 226 273 273 262 255 246 195 200 90 305 262 190 171 180 157 152 153 154 151 151 151 144 144 147 148 133 145 159 154 143
197 189 199 189 182 198 194 182 172 180 190 155 128 88 64 21 322 227 184 131 128 35 325 180 115 137 153 157 145 148 154 151 154 139 133 139 149 138 150 160 163 149 151
200 179 183 189 175 178 191 180 169 140 153 169 132 126 81 5 58 69 69 135 182 77 180 138 114 118 134 136 145 149 155 150 138 132 132 137 141 156 164 161 158 156 152
195 190 177 167 175 173 184 177 176 161 138 173 195 140 135 180 132 25 78 93 132 110 114 124 123 126 133 137 150 160 147 135 131 129 141 139 165 167 169 158 163 156 154
114 144 170 166 175 167 178 184 172 164 143 148 190 209 159 159 148 136 60 151 112 130 136 116 120 121 128 142 134 129 130 128 136 151 150 167 169 167 155 168 163 160 163
119 139 144 150 157 179 186 176 161 189 173 159 158 162 143 281 69 128 132 142 77 78 126 136 136 127 116 115 123 125 130 133 152 157 161 168 167 164 162 169 168 171 180
99 112 139 159 157 164 159 170 179 180 185 185 203 158 158 136 180 134 125 133 139 95 90 115 127 132 122 117 129 133 133 137 138 151 155 143 174 160 169 177 175 180 191
102 113 128 136 117 140 152 145 163 161 178 176 188 195 118 147 225 124 131 106 122 109 131 90 135 119 122 121 134 131 133 126 129 135 138 153 138 126 186 180 185 196 198
129 137 123 118 102 104 129 140 141 160 157 136 145 140 197 177 198 138 139 120 133 92 57 90 96 124 114 125 141 129 132 134 141 134 138 142 149 187 161 189 197 192 215
130 112 104 91 81 89 101 132 134 163 131 136 132 166 156 123 152 104 120 137 134 144 120 89 91 107 118 115 108 107 132 129 128 144 152 162 163 170 178 175 191 207 217
118 109 80 89 91 92 94 102 113 115 120 113 129 137 117 134 112 106 105 101 95 122 109 72 95 115 123 101 108 104 107 119 142 150 163 168 171 179 175 182 202 218 236
146 148 118 108 112 106 110 110 108 113 105 117 106 110 106 115 110 100 104 96 99 107 106 103 106 117 111 112 103 98 116 130 146 151 163 174 180 188 186 198 223 239 264
157 171 133 118 118 119 120 127 130 93 99 89 103 101 96 103 101 99 98 100 108 103 114 119 119 123 125 122 116 121 147 128 139 154 166 186 189 194 203 208 252 294 318
140 131 122 120 127 129 120 108 103 95 87 87 96 104 118 117 110 110 112 114 108 107 110 105 103 82 101 107 105 110 115 105 100 145 183 189 182 187 192 89 71 17 344
134 127 124 122 122 121 116 108 97 95 90 88 90 98 105 115 121 123 113 109 111 114 118 122 107 85 91 93 98 128 133 139 114 112 99 72 70 88 90 101 80 46 27
127 126 117 119 126 121 121 116 107 112 91 90 88 89 78 100 109 121 126 123 124 124 124 119 107 104 113 144 165 153 106 93 90 121 114 47 55 69 66 70 80 73 71
129 127 128 135 138 128 137 124 127 129 115 112 102 98 103 97 96 99 103 91 111 132 129 130 125 143 146 146 142 132 125 157 156 68 96 69 73 83 83 88 76 84 85
139 132 121 132 135 135 143 144 127 129 112 110 114 121 114 114 113 107 91 94 101 107 101 125 140 144 143 165 144 134 158 157 121 99 103 90 88 95 81 73 61 71 56
143 137 132 136 128 127 152 136 121 122 118 109 119 123 125 115 102 114 115 117 112 84 75 138 161 174 175 159 156 154 145 114 100 80 24 115 165 109 92 84 39 50 51
126 138 144 138 131 144 144 134 122 126 127 126 123 119 126 120 126 124 116 117 87 93 46 111 89 102 144 141 143 124 125 121 89 130 63 108 153 141 138 94 66 47 43
134 130 123 141 130 145 161 149 134 125 120 120 90 106 99 120 131 134 107 127 150 161 136 114 110 82 95 149 150 77 151 142 134 91 113 99 124 174 156 79 56 51 54